GW3985 Weather Reports


time (UTC)temp
C
wind
direction
speed
KPH
gust
KPH
rain 1hr
cm
rain 24hr
cm
rain mn
cm
humidity
%
barometer
mb
20260902032017 22 140 1.6 6.4 0.00 0.00 0.00 53 1023.9
20260902031015 22 137 3.2 9.7 0.00 0.00 0.00 52 1023.9
20260902030015 23 131 3.2 11.3 0.00 0.00 0.00 51 1023.8
20260902025016 23 141 3.2 11.3 0.00 0.00 0.00 51 1023.5
20260902024016 22 136 3.2 9.7 0.00 0.03 0.00 51 1023.2
20260902023016 22 86 0.0 1.6 0.00 0.03 0.00 54 1023.0
20260902022017 22 0.0 0.0 0.00 0.03 0.00 53 1023.1
20260902021017 22 0.0 0.0 0.00 0.03 0.00 52 1023.0
20260902020015 22 86 0.0 1.6 0.00 0.03 0.00 52 1023.0
20260902015035 23 86 0.0 1.6 0.00 0.03 0.00 51 1022.9
20260902014016 23 0.0 0.0 0.00 0.03 0.00 50 1022.9
20260902013016 23 0.0 0.0 0.00 0.03 0.00 49 1022.9
20260902012016 24 0.0 0.0 0.00 0.03 0.00 47 1022.9
20260902011017 25 86 0.0 1.6 0.00 0.03 0.00 45 1022.9
20260902010037 25 84 0.0 1.6 0.00 0.03 0.00 43 1022.8
20260902005035 25 0.0 0.0 0.00 0.03 0.00 42 1022.8
20260902004015 26 70 0.0 1.6 0.00 0.03 0.00 41 1022.8
20260902003016 26 99 0.0 1.6 0.00 0.03 0.00 41 1022.8
20260902002016 27 0.0 0.0 0.00 0.03 0.00 39 1022.8
20260902001016 27 45 0.0 1.6 0.00 0.03 0.00 38 1022.9
20260902000017 27 39 0.0 8.0 0.00 0.03 0.00 37 1022.9
20260901235015 28 190 0.0 4.8 0.00 0.03 0.00 34 1022.8
20260901234035 28 0.0 0.0 0.00 0.03 0.00 33 1022.8
20260901233015 29 86 0.0 3.2 0.00 0.03 0.00 31 1022.8
20260901232016 30 128 0.0 1.6 0.00 0.03 0.00 31 1022.7
20260901231016 30 262 0.0 1.6 0.00 0.03 0.00 31 1022.7
20260901230016 30 48 0.0 1.6 0.00 0.03 0.00 31 1022.7
20260901225017 30 253 0.0 3.2 0.00 0.03 0.00 30 1022.7
20260901224014 31 0.0 0.0 0.00 0.03 0.00 30 1022.8
20260901223015 30 96 0.0 3.2 0.00 0.03 0.00 30 1022.9
20260901222015 30 125 0.0 3.2 0.00 0.03 0.00 31 1022.9
20260901221016 29 55 0.0 3.2 0.00 0.03 0.00 33 1022.9
20260901220016 29 255 0.0 1.6 0.00 0.03 0.00 32 1023.1
20260901215016 29 273 0.0 1.6 0.00 0.03 0.00 32 1023.2
20260901214017 30 250 0.0 1.6 0.00 0.03 0.00 31 1023.4
20260901213035 30 102 0.0 1.6 0.00 0.03 0.00 32 1023.4
20260901212035 30 0.0 0.0 0.00 0.03 0.00 30 1023.5
20260901211036 30 102 0.0 1.6 0.00 0.03 0.00 30 1023.6
20260901210016 30 102 0.0 1.6 0.00 0.03 0.00 30 1023.7
20260901205016 30 102 0.0 1.6 0.00 0.03 0.00 29 1023.8
20260901204037 31 138 1.6 6.4 0.00 0.03 0.00 28 1023.9
20260901203017 30 133 1.6 3.2 0.00 0.03 0.00 29 1024.0
20260901202015 31 238 3.2 6.4 0.00 0.03 0.00 27 1024.1
20260901201015 31 6 0.0 3.2 0.00 0.03 0.00 29 1024.2
20260901200036 31 255 1.6 6.4 0.00 0.03 0.00 30 1024.3
20260901195016 30 305 0.0 3.2 0.00 0.03 0.00 30 1024.4
20260901194056 30 313 0.0 3.2 0.00 0.03 0.00 30 1024.5
20260901193017 29 101 0.0 1.6 0.00 0.03 0.00 32 1024.6
20260901192017 28 267 1.6 4.8 0.00 0.03 0.00 32 1024.8
20260901191015 28 219 0.0 3.2 0.00 0.03 0.00 33 1024.9
20260901190015 27 314 0.0 1.6 0.00 0.03 0.00 36 1024.9
20260901185016 27 34 0.0 6.4 0.00 0.03 0.00 36 1025.1
20260901184016 27 277 1.6 9.7 0.00 0.03 0.00 36 1025.3
20260901183016 26 248 1.6 4.8 0.00 0.03 0.00 39 1025.4
20260901182037 26 136 0.0 1.6 0.00 0.03 0.00 41 1025.5
20260901181015 25 279 0.0 3.2 0.00 0.03 0.00 41 1025.8
20260901180015 25 174 0.0 3.2 0.00 0.03 0.00 43 1025.9
20260901175055 24 142 0.0 4.8 0.00 0.03 0.00 42 1026.0
20260901174017 23 156 1.6 3.2 0.00 0.03 0.00 44 1026.1
20260901173016 23 268 1.6 14.5 0.00 0.03 0.00 50 1026.3
20260901172017 22 121 0.0 3.2 0.00 0.03 0.00 53 1026.4
20260901171017 21 288 1.6 4.8 0.00 0.03 0.00 56 1026.5
20260901170015 21 139 1.6 4.8 0.00 0.03 0.00 57 1026.6
20260901165015 21 149 0.0 3.2 0.00 0.03 0.00 58 1026.5
20260901164016 21 128 1.6 6.4 0.00 0.03 0.00 58 1026.4
20260901163016 20 163 0.0 3.2 0.00 0.03 0.00 60 1026.4
20260901162016 20 280 1.6 6.4 0.00 0.03 0.00 61 1026.5
20260901161017 20 281 0.0 3.2 0.00 0.03 0.00 62 1026.5
20260901160017 20 271 0.0 3.2 0.00 0.03 0.00 63 1026.6
20260901155015 19 154 0.0 3.2 0.00 0.03 0.00 64 1026.6
20260901154015 18 139 0.0 3.2 0.00 0.03 0.00 65 1026.5
20260901153016 18 177 0.0 1.6 0.00 0.03 0.00 68 1026.5
20260901152016 18 0.0 0.0 0.00 0.03 0.00 69 1026.5
20260901151016 17 0.0 0.0 0.00 0.03 0.00 72 1026.3
20260901150017 17 146 0.0 1.6 0.00 0.03 0.00 76 1026.3
20260901145017 16 0.0 0.0 0.00 0.03 0.00 80 1026.1
20260901144015 16 0.0 0.0 0.00 0.03 0.00 81 1026.1
20260901143015 16 0.0 0.0 0.00 0.03 0.00 81 1026.0
20260901142016 16 0.0 0.0 0.00 0.03 0.00 82 1026.0
20260901141056 16 0.0 0.0 0.00 0.03 0.00 82 1026.0
20260901140016 15 146 0.0 1.6 0.00 0.03 0.00 81 1025.9
20260901135037 15 0.0 0.0 0.00 0.03 0.00 82 1025.9
20260901134017 15 0.0 0.0 0.00 0.03 0.00 82 1025.9
20260901133015 15 146 0.0 1.6 0.00 0.03 0.00 82 1025.7
20260901132016 15 146 0.0 1.6 0.00 0.03 0.00 83 1025.6
20260901131016 15 174 0.0 1.6 0.00 0.03 0.00 85 1025.5
20260901130016 14 0.0 0.0 0.00 0.03 0.00 85 1025.3
20260901125016 14 0.0 0.0 0.00 0.03 0.00 84 1025.1
20260901124017 14 0.0 0.0 0.00 0.03 0.00 84 1025.0
20260901123014 14 0.0 0.0 0.00 0.03 0.00 84 1025.0
20260901122015 14 0.0 0.0 0.00 0.03 0.00 83 1024.9
20260901121015 15 0.0 0.0 0.00 0.03 0.00 83 1024.8
20260901120016 15 0.0 0.0 0.00 0.03 0.00 82 1024.8
20260901115016 15 0.0 0.0 0.00 0.03 0.00 80 1024.8
20260901114016 15 290 0.0 3.2 0.00 0.03 0.00 79 1024.7
20260901113017 15 151 0.0 6.4 0.00 0.03 0.00 78 1024.5
20260901112015 15 143 1.6 6.4 0.00 0.03 0.00 79 1024.5
20260901111015 15 137 1.6 3.2 0.00 0.03 0.00 80 1024.7
20260901110035 15 143 0.0 3.2 0.00 0.03 0.00 81 1024.9
20260901105036 15 135 0.0 1.6 0.00 0.03 0.00 81 1025.1
20260901104016 15 132 0.0 3.2 0.00 0.03 0.00 80 1025.2
20260901103017 15 147 0.0 1.6 0.00 0.03 0.00 80 1025.3
20260901102037 15 147 0.0 1.6 0.00 0.03 0.00 81 1025.5
20260901101035 15 147 0.0 1.6 0.00 0.03 0.00 81 1025.6
20260901100015 15 140 1.6 4.8 0.00 0.03 0.00 81 1025.6
20260901095016 15 144 0.0 1.6 0.00 0.03 0.00 81 1025.7
20260901094016 15 145 0.0 3.2 0.00 0.03 0.00 81 1026.0
20260901093016 15 139 0.0 3.2 0.00 0.03 0.00 81 1026.0
20260901092017 15 139 0.0 1.6 0.00 0.03 0.00 81 1026.1
20260901091017 15 139 0.0 3.2 0.00 0.03 0.00 81 1026.1
20260901090035 15 139 0.0 3.2 0.00 0.03 0.00 81 1026.1
20260901085015 15 139 0.0 1.6 0.00 0.03 0.00 81 1026.1
20260901084016 15 140 0.0 1.6 0.00 0.03 0.00 82 1026.3
20260901083036 15 143 1.6 4.8 0.00 0.03 0.00 82 1026.4
20260901082017 15 145 0.0 1.6 0.00 0.03 0.00 83 1026.4
20260901081017 15 145 0.0 1.6 0.00 0.03 0.00 83 1026.6
20260901080014 15 145 0.0 1.6 0.00 0.03 0.00 82 1026.7
20260901075015 15 0.0 0.0 0.00 0.03 0.00 82 1026.9
20260901074015 15 282 0.0 1.6 0.00 0.03 0.00 83 1026.9
20260901073036 15 0.0 0.0 0.00 0.03 0.00 83 1026.8
20260901072016 15 0.0 0.0 0.00 0.03 0.00 83 1027.0
20260901071017 15 0.0 0.0 0.00 0.03 0.00 83 1027.0
20260901070017 15 0.0 0.0 0.00 0.03 0.00 83 1026.9
20260901065015 15 0.0 0.0 0.00 0.03 0.00 83 1026.8
20260901064015 15 0.0 0.0 0.00 0.03 0.00 82 1026.7
20260901063015 15 0.0 0.0 0.00 0.03 0.00 82 1026.8
20260901062016 15 0.0 0.0 0.00 0.03 0.00 81 1026.8
20260901061016 16 0.0 0.0 0.00 0.03 0.00 81 1026.6
20260901060017 16 0.0 0.0 0.00 0.03 0.00 80 1026.7
20260901055017 16 141 0.0 1.6 0.00 0.03 0.03 80 1027.2
20260901054035 16 144 1.6 3.2 0.00 0.03 0.03 80 1027.4
20260901053015 16 139 1.6 4.8 0.00 0.03 0.03 81 1027.3
20260901052016 16 142 0.0 3.2 0.00 0.03 0.03 81 1027.3
20260901050036 16 132 0.0 1.6 0.00 0.03 0.03 81 1026.9
20260901045017 16 0.0 0.0 0.00 0.03 0.03 82 1027.0
20260901044017 16 132 0.0 1.6 0.00 0.03 0.03 82 1026.7
20260901043055 16 0.0 0.0 0.00 0.03 0.03 82 1026.5
20260901042015 16 0.0 0.0 0.00 0.03 0.03 81 1026.5
20260901041016 16 0.0 0.0 0.00 0.03 0.03 81 1026.5
20260901040016 16 0.0 0.0 0.00 0.03 0.03 79 1026.7
20260901035016 17 0.0 0.0 0.00 0.03 0.03 78 1026.9
20260901034017 17 255 0.0 1.6 0.03 0.03 0.03 78 1027.1
20260901033057 16 220 0.0 3.2 0.03 0.03 0.03 81 1027.1